1483664400.72,42500,5.06,72056.8,-29.61,-56.67,-58.09,0,*69
1483664401.97,42501,5.0,72056.3,-29.61,-56.43,-58.09,0,*6E
1483664403.23,42502,5.06,72066.3,-29.61,-56.43,-58.09,0,*6D
1483664404.46,42503,5.06,72066.5,-29.61,-56.37,-57.85,0,*64
1483664405.68,42504,5.06,72070.0,-29.61,-56.21,-57.93,0,*63
1483664406.95,42505,5.06,72068.3,-29.61,-56.13,-57.61,0,*6E
1483664408.22,42506,5.06,72064.8,-29.61,-56.13,-57.69,0,*65
1483664409.48,42507,5.06,72064.3,-29.61,-56.43,-57.85,0,*63
1483664410.71,42508,5.06,72066.8,-29.61,-56.37,-57.85,0,*6F
1483664411.95,42509,5.06,72060.5,-29.61,-56.13,-57.85,0,*68
1483664413.17,42510,5.06,72064.5,-29.61,-56.37,-57.93,0,*61
1483664414.39,42511,5.06,72062.3,-29.61,-56.67,-57.93,0,*65
1483664415.65,42512,5.06,72054.3,-29.61,-56.43,-57.85,0,*67
1483664416.88,42513,5.0,72052.0,-29.61,-56.37,-57.85,0,*65
1483664418.13,42514,5.06,72062.5,-29.61,-56.21,-57.61,0,*6F
1483664419.38,42515,5.0,72060.0,-29.61,-56.21,-57.61,0,*6E
1483664420.63,42516,5.06,72066.3,-29.61,-56.37,-57.69,0,*62
1483664421.88,42517,5.06,72066.8,-29.61,-56.67,-57.69,0,*66
1483664423.11,42518,5.0,72054.3,-29.61,-56.83,-57.93,0,*66
1483664424.33,42519,5.06,72056.0,-29.61,-56.67,-57.85,0,*6A
1483664425.56,42520,5.0,72066.0,-29.61,-56.59,-57.93,0,*6A
1483664426.81,42521,5.06,72064.3,-29.61,-56.37,-57.69,0,*66
1483664428.04,42522,5.06,72060.8,-29.61,-56.21,-57.85,0,*60
1483664429.31,42523,5.06,72066.8,-29.61,-56.13,-57.69,0,*62
1483664430.53,42524,5.06,72066.0,-29.61,-56.21,-57.85,0,*66
1483664431.76,42525,5.06,72068.0,-29.61,-56.21,-57.85,0,*67
1483664432.98,42526,5.06,72058.8,-29.61,-56.21,-57.45,0,*68
1483664434.23,42527,5.06,72064.8,-29.61,-55.67,-57.15,0,*6D
1483664435.49,42528,5.06,72060.8,-29.61,-55.75,-57.21,0,*66
1483664436.74,42529,5.06,72058.0,-29.61,-55.67,-56.83,0,*6D
1483664437.99,42530,5.06,72052.3,-29.61,-55.97,-57.37,0,*64
1483664439.25,42531,5.06,72056.0,-29.63,-55.89,-57.45,0,*6D
1483664440.5,42532,5.06,72052.3,-29.61,-55.67,-57.37,0,*69
1483664441.75,42533,5.06,72052.8,-29.61,-55.75,-57.37,0,*6B
1483664443.01,42534,5.06,72060.3,-29.61,-55.35,-56.91,0,*65
1483664444.27,42535,5.0,72040.0,-29.61,-54.97,-56.91,0,*6D
1483664445.53,42536,5.06,72052.0,-29.61,-54.67,-56.83,0,*62
1483664446.78,42537,5.06,72074.8,-29.61,-54.75,-57.07,0,*6D
1483664448.06,42538,5.06,72058.5,-29.61,-55.89,-57.69,0,*68
1483664449.3,42539,5.06,72068.3,-29.61,-55.89,-57.37,0,*62
1483664450.57,42540,5.06,72056.8,-29.61,-56.13,-57.69,0,*67
1483664451.82,42541,5.06,72058.3,-29.61,-56.43,-57.93,0,*66
1483664453.05,42542,5.06,72062.8,-29.61,-56.59,-57.93,0,*6E
1483664454.3,42543,5.06,72058.5,-29.61,-56.43,-57.93,0,*64
1483664455.53,42544,5.0,72058.5,-29.61,-56.67,-58.09,0,*69
1483664456.78,42545,5.06,72064.3,-29.61,-56.43,-57.93,0,*62
1483664458.04,42546,5.06,72050.3,-29.61,-56.43,-57.85,0,*66
1483664459.29,42547,5.06,72060.3,-29.61,-56.37,-57.69,0,*66
1483664460.51,42548,5.06,72050.3,-29.61,-56.21,-57.93,0,*6B
1483664461.77,42549,5.06,72056.8,-29.61,-56.43,-58.09,0,*62
1483664463.0,42550,5.06,72052.0,-29.61,-56.37,-58.09,0,*69
1483664464.23,42551,5.06,72060.0,-29.61,-56.37,-57.93,0,*64
1483664465.48,42552,5.06,72050.0,-29.61,-56.43,-57.93,0,*64
1483664466.7,42553,5.06,72048.5,-29.61,-56.67,-57.93,0,*63
1483664467.93,42554,5.06,72032.0,-29.61,-56.59,-57.93,0,*69
1483664469.15,42555,5.0,72048.5,-29.61,-56.21,-57.85,0,*60
1483664470.39,42556,5.06,72054.0,-29.61,-55.97,-57.85,0,*6D
1483664471.62,42557,5.06,72056.5,-29.61,-56.21,-57.93,0,*65
1483664472.84,42558,5.06,72058.0,-29.61,-56.37,-57.85,0,*6A
1483664474.09,42559,5.06,72054.8,-29.61,-56.21,-57.69,0,*6E
1483664475.35,42560,5.06,72062.3,-29.61,-56.43,-57.85,0,*62
1483664476.63,42561,5.06,72040.8,-29.61,-56.43,-57.69,0,*61
1483664477.86,42562,5.06,72044.3,-29.61,-56.37,-57.45,0,*6F
1483664479.11,42563,5.06,72040.8,-29.61,-56.13,-57.21,0,*6A
1483664480.35,42564,5.0,72042.3,-29.61,-55.89,-57.21,0,*6D
1483664481.61,42565,5.0,72046.5,-29.61,-55.75,-57.37,0,*68
1483664482.86,42566,5.0,72040.0,-29.61,-55.75,-57.37,0,*6B
1483664484.11,42567,5.06,72032.0,-29.61,-55.67,-57.21,0,*6E
1483664485.35,42568,5.06,72028.3,-29.61,-55.67,-57.37,0,*66
1483664486.61,42569,5.06,72064.3,-29.61,-55.75,-57.45,0,*61
1483664487.85,42570,5.06,72026.0,-29.61,-56.13,-57.85,0,*66
1483664489.1,42571,5.06,72020.0,-29.61,-56.43,-57.93,0,*65
1483664490.33,42572,5.06,72032.8,-29.61,-56.59,-57.93,0,*6D
1483664491.55,42573,5.06,72030.0,-29.61,-56.67,-57.93,0,*61
1483664492.77,42574,5.0,72030.0,-29.61,-56.67,-57.93,0,*66
1483664494.0,42575,5.06,72038.8,-29.61,-56.59,-57.93,0,*6A
1483664495.22,42576,5.06,72046.0,-29.61,-56.37,-57.85,0,*66
1483664496.47,42577,5.0,72042.0,-29.61,-56.13,-57.45,0,*6D
1483664497.75,42578,5.06,72046.3,-29.61,-56.43,-57.61,0,*61
1483664499.0,42579,5.06,72050.8,-29.61,-56.37,-57.69,0,*6B
1483664500.26,42580,5.06,72058.0,-29.61,-56.43,-57.93,0,*6B
1483664501.53,42581,5.0,72056.3,-29.61,-55.89,-57.69,0,*6A
1483664502.77,42582,5.06,72056.8,-29.61,-55.89,-57.37,0,*62
1483664504.03,42583,5.0,72052.5,-29.61,-55.75,-57.15,0,*60
1483664505.29,42584,5.0,72048.5,-29.61,-55.75,-57.21,0,*60
1483664506.54,42585,5.06,72070.0,-29.61,-55.67,-57.15,0,*65
1483664507.79,42586,5.06,72034.3,-29.61,-55.89,-57.21,0,*61
1483664509.05,42587,5.06,72034.8,-29.61,-56.13,-57.61,0,*64
1483664510.3,42588,5.06,72022.0,-29.61,-55.97,-57.21,0,*60
1483664511.54,42589,5.06,72036.8,-29.61,-55.97,-57.37,0,*66
1483664512.8,42590,5.0,72048.8,-29.61,-55.43,-56.91,0,*6A
1483664514.06,42591,5.0,72034.3,-29.61,-55.67,-56.83,0,*6E
1483664515.32,42592,5.06,72048.0,-29.61,-55.35,-56.83,0,*6A
1483664516.57,42593,5.0,72044.0,-29.61,-55.59,-57.07,0,*6C
1483664517.83,42594,5.06,72046.5,-29.61,-55.75,-57.15,0,*66
1483664519.08,42595,5.0,72048.5,-29.61,-55.67,-57.07,0,*67
1483664520.33,42596,5.0,72044.8,-29.61,-55.59,-57.15,0,*6A
1483664521.59,42597,5.06,72046.5,-29.61,-55.35,-57.07,0,*62
1483664522.85,42598,5.06,72058.0,-29.61,-55.21,-56.83,0,*65
1483664524.1,42599,5.06,72058.0,-29.61,-55.35,-57.21,0,*68
1483664525.36,42600,5.06,72064.3,-29.61,-55.59,-57.07,0,*65
1483664526.62,42601,5.0,72046.5,-29.61,-55.43,-56.91,0,*61
1483664527.88,42602,5.0,72048.5,-29.61,-55.43,-56.91,0,*62
1483664529.15,42603,5.0,72036.0,-29.59,-55.59,-56.99,0,*6B
1483664530.42,42604,5.06,72050.8,-29.59,-55.59,-56.99,0,*6C
1483664531.7,42605,5.06,72050.0,-29.59,-55.59,-56.59,0,*61
1483664532.97,42606,5.0,72054.8,-29.55,-55.67,-57.15,0,*6A
1483664534.21,42607,5.0,72038.5,-29.59,-55.81,-57.29,0,*60
1483664535.45,42608,5.0,72048.8,-29.55,-55.81,-57.29,0,*63
1483664536.73,42609,5.06,72054.3,-29.59,-55.67,-57.07,0,*6A
1483664538.01,42610,5.0,72052.5,-29.55,-55.51,-57.15,0,*68
1483664539.29,42611,5.0,72066.0,-29.55,-55.35,-57.07,0,*68
1483664540.54,42612,5.06,72060.0,-29.55,-55.29,-56.99,0,*60
1483664541.82,42613,5.0,72064.8,-29.59,-55.67,-57.07,0,*61
1483664543.09,42614,5.06,72064.3,-29.55,-55.67,-57.07,0,*6A
1483664544.37,42615,5.0,72074.3,-29.59,-55.81,-57.53,0,*6E
1483664545.63,42616,5.0,72064.5,-29.55,-55.89,-57.29,0,*64
1483664546.9,42617,5.06,72068.5,-29.59,-56.05,-57.37,0,*61
1483664548.17,42618,5.0,72064.3,-29.59,-55.89,-57.37,0,*69
1483664549.43,42619,5.0,72072.8,-29.55,-56.13,-57.37,0,*64
1483664550.68,42620,5.0,72072.0,-29.59,-55.81,-57.29,0,*65
1483664551.97,42621,5.0,72064.5,-29.59,-56.05,-57.61,0,*67
1483664553.24,42622,5.06,72074.5,-29.59,-56.13,-57.37,0,*60
1483664554.53,42623,5.0,72068.8,-29.59,-56.13,-57.61,0,*62
1483664555.8,42624,5.06,72078.5,-29.61,-56.13,-57.61,0,*6E
1483664557.09,42625,5.06,72076.0,-29.59,-56.13,-57.61,0,*64
1483664558.39,42626,5.06,72076.3,-29.59,-56.13,-57.61,0,*67
1483664559.64,42627,5.06,72072.0,-29.59,-56.37,-57.85,0,*6A
1483664560.89,42628,5.06,72072.5,-29.59,-56.29,-57.85,0,*6A
1483664562.14,42629,5.06,72076.0,-29.59,-56.37,-57.85,0,*64
1483664563.43,42630,5.06,72078.5,-29.55,-56.13,-57.61,0,*6C
1483664564.71,42631,5.0,72060.3,-29.59,-56.37,-57.61,0,*67
1483664565.98,42632,5.06,72070.3,-29.59,-56.37,-57.61,0,*64
1483664567.26,42633,5.0,72062.5,-29.59,-56.37,-57.53,0,*64
1483664568.54,42634,5.0,72062.3,-29.59,-56.37,-57.53,0,*63
1483664569.84,42635,5.06,72068.5,-29.59,-56.51,-57.77,0,*64
1483664571.09,42636,5.06,72074.5,-29.59,-56.59,-57.85,0,*62
1483664572.37,42637,5.06,72066.3,-29.59,-56.51,-57.85,0,*6B
1483664573.64,42638,5.0,72076.5,-29.59,-56.29,-57.61,0,*61
1483664574.87,42639,5.06,72074.5,-29.61,-56.59,-57.93,0,*61
1483664576.1,42640,5.0,72068.5,-29.61,-56.59,-57.93,0,*6F
1483664577.35,42641,5.0,72066.3,-29.61,-56.37,-57.69,0,*63
1483664578.6,42642,5.06,72064.5,-29.61,-56.21,-57.69,0,*67
1483664579.83,42643,5.0,72060.5,-29.61,-56.37,-57.85,0,*63
1483664581.1,42644,5.06,72070.8,-29.61,-56.13,-57.69,0,*60
1483664582.35,42645,5.0,72052.5,-29.61,-56.37,-57.69,0,*67
1483664583.6,42646,5.06,72072.8,-29.61,-55.97,-57.21,0,*61
1483664584.84,42647,5.0,72062.5,-29.61,-55.97,-57.45,0,*62
1483664586.09,42648,5.06,72070.5,-29.61,-55.97,-57.37,0,*68
1483664587.37,42649,5.06,72060.3,-29.61,-55.75,-57.61,0,*66
1483664588.62,42650,5.0,72066.8,-29.61,-55.75,-57.21,0,*6A
1483664589.87,42651,5.0,72062.3,-29.61,-55.75,-57.45,0,*69
1483664591.14,42652,5.0,72070.5,-29.61,-55.97,-57.69,0,*68
1483664592.37,42653,5.0,72076.0,-29.61,-56.21,-57.85,0,*65
1483664593.59,42654,5.0,72064.8,-29.61,-56.37,-57.85,0,*65
1483664594.85,42655,5.0,72070.0,-29.61,-56.21,-57.61,0,*69
1483664596.11,42656,5.06,72068.5,-29.61,-55.97,-57.61,0,*64
1483664597.36,42657,5.06,72076.3,-29.61,-55.89,-57.21,0,*6E
1483664598.61,42658,5.06,72082.8,-29.61,-55.67,-57.15,0,*66
1483664599.87,42659,5.06,72070.5,-29.61,-55.89,-57.15,0,*67
1483664601.12,42660,5.0,72064.3,-29.61,-55.75,-57.15,0,*6E
1483664602.37,42661,5.0,72070.8,-29.61,-55.59,-56.91,0,*6C
1483664603.63,42662,5.0,72072.3,-29.61,-55.35,-57.07,0,*6B
1483664604.88,42663,5.06,72076.3,-29.61,-55.59,-57.21,0,*64
1483664606.13,42664,5.0,72076.8,-29.61,-55.75,-57.37,0,*6A
1483664607.38,42665,5.0,72078.0,-29.61,-55.75,-57.37,0,*6B
1483664608.63,42666,5.0,72074.3,-29.61,-55.67,-57.45,0,*6E
1483664609.88,42667,5.0,72062.8,-29.61,-55.89,-57.37,0,*6A
1483664611.12,42668,5.0,72058.0,-29.61,-55.97,-57.45,0,*6F
1483664612.37,42669,5.06,72062.0,-29.61,-55.89,-57.37,0,*64
1483664613.61,42670,5.06,72074.3,-29.61,-55.89,-57.37,0,*6C
1483664614.86,42671,5.0,72070.8,-29.61,-55.89,-57.15,0,*6D
1483664616.11,42672,5.0,72056.0,-29.61,-55.75,-57.21,0,*6A
1483664617.38,42673,5.0,72062.8,-29.61,-55.97,-57.61,0,*63
1483664618.63,42674,5.0,72060.0,-29.61,-56.21,-57.61,0,*6A
1483664619.9,42675,5.0,72062.3,-29.63,-56.13,-57.37,0,*6B
1483664621.16,42676,5.06,72062.3,-29.63,-55.97,-57.37,0,*67
1483664622.43,42677,5.06,72070.3,-29.63,-55.89,-57.21,0,*6E
1483664623.69,42678,5.0,72070.8,-29.63,-55.97,-57.45,0,*6C
1483664624.98,42679,5.0,72062.0,-29.63,-56.13,-57.69,0,*6C
1483664626.23,42680,5.0,72060.8,-29.63,-56.21,-57.45,0,*65
1483664627.48,42681,5.06,72064.8,-29.61,-55.89,-57.21,0,*65
1483664628.75,42682,5.0,72060.5,-29.63,-56.37,-57.69,0,*6E
1483664630.06,42683,5.0,72060.8,-29.65,-56.43,-57.69,0,*6A
1483664631.32,42684,5.06,72056.8,-29.63,-55.97,-57.37,0,*6A
1483664632.59,42685,5.0,72068.3,-29.63,-55.89,-57.15,0,*64
1483664633.84,42686,5.0,72062.3,-29.65,-55.81,-57.29,0,*66
1483664635.09,42687,5.0,72074.3,-29.61,-55.89,-57.21,0,*63
1483664636.34,42688,5.0,72068.8,-29.61,-55.75,-57.37,0,*68
1483664637.6,42689,5.06,72062.0,-29.63,-55.97,-57.45,0,*62
1483664638.87,42690,5.0,72066.3,-29.63,-56.21,-57.61,0,*62
1483664640.16,42691,5.0,72060.5,-29.63,-55.97,-57.61,0,*6D
1483664641.45,42692,5.06,72070.3,-29.63,-55.97,-57.61,0,*6E
1483664642.72,42693,5.0,72068.5,-29.63,-55.97,-57.45,0,*69
1483664644.02,42694,5.0,72076.0,-29.65,-56.05,-57.69,0,*6E
1483664645.28,42695,5.0,72070.3,-29.63,-55.89,-57.37,0,*65
1483664646.55,42696,5.06,72070.3,-29.63,-55.97,-57.45,0,*6C
1483664647.81,42697,5.0,72070.8,-29.63,-55.89,-57.37,0,*67
1483664649.08,42698,5.0,72070.0,-29.65,-55.97,-57.45,0,*64
1483664650.35,42699,5.0,72074.8,-29.63,-55.89,-57.37,0,*69
1483664651.63,42700,5.0,72074.3,-29.65,-55.75,-57.29,0,*62
1483664652.9,42701,5.0,72074.0,-29.65,-55.81,-57.53,0,*65
1483664654.18,42702,5.06,72068.5,-29.65,-55.67,-57.21,0,*6B
1483664655.46,42703,5.0,72062.8,-29.65,-55.75,-57.15,0,*6E
1483664656.73,42704,5.0,72060.5,-29.63,-55.89,-57.21,0,*6B
1483664658.02,42705,5.0,72064.8,-29.65,-56.05,-57.53,0,*6E
1483664659.3,42706,5.0,72062.5,-29.65,-56.21,-57.53,0,*6B
1483664660.57,42707,5.0,72062.8,-29.63,-55.97,-57.21,0,*67
1483664661.84,42708,5.06,72068.0,-29.65,-56.05,-57.29,0,*6E
1483664663.1,42709,5.0,72062.3,-29.63,-55.97,-57.37,0,*6E
1483664664.35,42710,5.0,72072.8,-29.65,-55.81,-57.15,0,*67
1483664665.63,42711,5.0,72066.3,-29.65,-55.75,-57.21,0,*6A
1483664666.9,42712,5.0,72064.0,-29.65,-56.05,-57.45,0,*6F
1483664668.2,42713,5.0,72070.8,-29.65,-56.05,-57.53,0,*69
1483664669.5,42714,5.06,72062.3,-29.65,-55.97,-57.53,0,*66
1483664670.77,42715,5.0,72056.8,-29.65,-55.97,-57.45,0,*60
1483664672.04,42716,5.06,72072.8,-29.63,-55.89,-57.15,0,*6F
1483664673.32,42717,5.0,72072.5,-29.65,-55.75,-57.15,0,*6B
1483664674.61,42718,5.0,72068.3,-29.65,-55.51,-56.99,0,*67
1483664675.86,42719,5.0,72064.8,-29.71,-55.75,-57.07,0,*63
1483664677.09,42720,5.0,72068.5,-29.71,-55.81,-57.07,0,*62
1483664678.34,42721,5.0,72062.0,-29.71,-56.05,-57.37,0,*6F
1483664679.61,42722,5.0,72068.0,-29.65,-55.67,-56.91,0,*63
1483664680.89,42723,5.0,72078.8,-29.65,-55.75,-56.99,0,*69
1483664682.18,42724,5.0,72078.3,-29.65,-55.75,-57.15,0,*6B
1483664683.42,42725,5.06,72086.5,-29.65,-55.81,-57.21,0,*66
1483664684.69,42726,5.06,72090.0,-29.65,-55.97,-57.21,0,*62
1483664685.97,42727,5.0,72074.5,-29.65,-55.75,-56.99,0,*6D
1483664687.29,42728,5.0,72070.8,-29.65,-55.75,-56.51,0,*66
1483664688.56,42729,5.06,72080.3,-29.63,-55.75,-56.91,0,*6D
1483664689.82,42730,5.0,72062.3,-29.65,-56.21,-57.15,0,*6C
1483664691.09,42731,5.0,72074.8,-29.65,-55.97,-57.15,0,*63
1483664692.34,42732,5.0,72050.5,-29.65,-55.81,-56.91,0,*6A
1483664693.59,42733,5.06,72062.0,-29.65,-55.81,-57.15,0,*66
1483664694.87,42734,5.0,72046.0,-29.63,-55.59,-56.83,0,*6C
1483664696.09,42735,5.0,72048.8,-29.71,-55.81,-56.99,0,*60
1483664697.38,42736,5.0,72036.3,-29.65,-55.43,-56.91,0,*60
1483664698.66,42737,5.0,72076.3,-29.65,-54.97,-56.21,0,*62
1483664699.98,42738,5.06,72064.0,-29.65,-55.21,-56.51,0,*66
1483664701.26,42739,5.0,72060.8,-29.63,-55.13,-56.37,0,*60
1483664702.58,42740,5.06,72076.3,-29.65,-55.43,-56.43,0,*6E
1483664703.87,42741,5.06,72052.0,-29.65,-55.51,-56.91,0,*63
1483664705.15,42742,5.0,72050.3,-29.63,-55.43,-56.67,0,*6C
1483664706.43,42743,5.0,72048.5,-29.63,-55.43,-56.83,0,*67
1483664707.7,42744,5.0,72048.0,-29.63,-55.59,-56.91,0,*68
1483664708.98,42745,5.06,72058.8,-29.63,-55.43,-56.67,0,*6B
1483664710.26,42746,5.0,72056.8,-29.63,-55.35,-56.83,0,*63
1483664711.54,42747,5.06,72054.5,-29.65,-55.67,-57.15,0,*6D
1483664712.82,42748,5.0,72046.8,-29.63,-55.43,-56.59,0,*6B
1483664714.11,42749,5.06,72056.3,-29.65,-55.51,-56.75,0,*61
1483664715.39,42750,5.06,72064.0,-29.63,-55.13,-56.59,0,*67
1483664716.67,42751,5.0,72058.5,-29.63,-55.35,-56.59,0,*62
1483664717.95,42752,5.0,72066.5,-29.63,-55.43,-56.67,0,*6D
1483664719.23,42753,5.0,72048.5,-29.63,-55.75,-57.07,0,*6E
1483664720.51,42754,5.06,72058.5,-29.65,-55.75,-57.15,0,*6C
1483664721.79,42755,5.0,72062.8,-29.63,-55.35,-56.91,0,*62
1483664723.07,42756,5.0,72056.8,-29.63,-55.21,-56.83,0,*67
1483664724.35,42757,5.0,72064.8,-29.63,-55.21,-56.83,0,*66
1483664725.63,42758,5.0,72064.0,-29.63,-55.13,-56.59,0,*6F
1483664726.91,42759,5.0,72068.0,-29.63,-55.21,-56.67,0,*62
1483664728.19,42760,5.0,72068.3,-29.63,-54.97,-56.59,0,*69
1483664729.47,42761,5.0,72064.3,-29.63,-54.97,-56.59,0,*68
1483664730.75,42762,5.0,72068.3,-29.63,-55.13,-56.59,0,*66
1483664732.02,42763,5.0,72070.8,-29.61,-55.43,-56.83,0,*67
1483664733.26,42764,5.0,72076.0,-29.61,-55.59,-56.67,0,*61
1483664734.51,42765,5.0,72060.5,-29.61,-55.59,-56.67,0,*60
1483664735.76,42766,5.0,72058.5,-29.61,-55.59,-56.67,0,*63
1483664737.01,42767,5.0,72060.0,-29.61,-55.35,-56.67,0,*68
1483664738.32,42768,5.0,72058.5,-29.63,-55.21,-56.43,0,*66
1483664739.6,42769,5.06,72076.3,-29.63,-55.13,-56.59,0,*6D
1483664740.88,42770,5.0,72064.5,-29.63,-55.21,-56.67,0,*69
1483664742.15,42771,5.0,72068.0,-29.63,-55.35,-56.83,0,*67
1483664743.44,42772,5.0,72064.5,-29.63,-55.43,-56.91,0,*66
1483664744.72,42773,5.0,72064.3,-29.63,-55.43,-57.07,0,*69
1483664746.0,42774,5.06,72066.5,-29.63,-55.59,-57.07,0,*65
1483664747.28,42775,5.0,72066.5,-29.63,-55.43,-56.91,0,*61
1483664748.56,42776,5.06,72062.8,-29.63,-55.43,-56.67,0,*6B
1483664749.83,42777,5.0,72052.5,-29.63,-55.21,-56.67,0,*6E
1483664751.11,42778,5.0,72060.5,-29.63,-55.21,-56.59,0,*6C
1483664752.38,42779,5.06,72058.8,-29.63,-55.35,-56.67,0,*65
1483664753.66,42780,5.06,72062.0,-29.63,-55.43,-56.91,0,*6B
1483664754.93,42781,5.0,72056.0,-29.63,-55.59,-56.67,0,*68
1483664756.21,42782,5.0,72056.0,-29.63,-55.43,-56.91,0,*69
1483664757.5,42783,5.0,72052.5,-29.65,-55.51,-56.91,0,*6D
1483664758.78,42784,5.0,72060.0,-29.63,-55.35,-56.83,0,*6D
1483664760.07,42785,5.06,72056.3,-29.63,-55.43,-56.83,0,*6D
1483664761.33,42786,5.0,72058.8,-29.63,-55.59,-56.67,0,*6F
1483664762.61,42787,5.0,72054.5,-29.63,-55.35,-56.91,0,*6D
1483664763.89,42788,5.0,72056.0,-29.63,-55.43,-57.07,0,*6D
1483664765.17,42789,5.0,72054.3,-29.63,-55.21,-56.91,0,*66
1483664766.46,42790,5.0,72056.8,-29.65,-55.43,-56.75,0,*66
1483664767.74,42791,5.0,72056.5,-29.65,-55.21,-56.75,0,*63
1483664769.03,42792,5.0,72050.3,-29.65,-55.51,-56.75,0,*67
1483664770.31,42793,5.0,72048.8,-29.63,-55.43,-56.75,0,*63
1483664771.6,42794,5.0,72058.3,-29.65,-55.43,-56.75,0,*62
1483664772.86,42795,5.06,72062.3,-29.63,-54.51,-56.21,0,*66
1483664774.12,42796,5.06,72062.0,-29.63,-54.51,-56.21,0,*65
1483664775.41,42797,5.0,72060.0,-29.63,-54.29,-55.89,0,*6A
1483664776.65,42798,5.0,72060.3,-29.61,-54.51,-56.37,0,*6E
1483664777.94,42799,5.0,72064.0,-29.63,-54.97,-56.37,0,*67
1483664779.25,42800,5.0,72052.3,-29.63,-54.97,-56.43,0,*6B
1483664780.53,42801,5.0,72068.5,-29.63,-55.21,-56.67,0,*60
1483664781.8,42802,5.0,72056.8,-29.63,-54.89,-56.43,0,*66
1483664783.08,42803,5.0,72058.8,-29.63,-54.67,-56.21,0,*63
1483664784.38,42804,5.0,72066.5,-29.65,-54.37,-56.05,0,*61
1483664785.66,42805,5.0,72068.5,-29.63,-53.99,-55.89,0,*62
1483664786.95,42806,5.0,72072.3,-29.63,-53.45,-55.59,0,*6D
1483664788.23,42807,5.06,72068.5,-29.61,-53.31,-55.35,0,*67
1483664789.48,42808,5.0,72070.0,-29.61,-53.69,-55.43,0,*64
1483664790.76,42809,5.0,72058.3,-29.61,-53.91,-55.97,0,*6B
1483664792.04,42810,5.0,72064.5,-29.61,-54.13,-55.97,0,*6E
1483664793.32,42811,5.0,72066.8,-29.63,-53.99,-55.75,0,*64
1483664794.59,42812,5.0,72068.3,-29.63,-53.99,-56.13,0,*64
1483664795.84,42813,5.0,72068.3,-29.63,-53.99,-56.21,0,*64
1483664797.11,42814,5.06,72066.5,-29.61,-54.13,-56.21,0,*64
1483664798.39,42815,5.0,72070.5,-29.61,-54.21,-56.13,0,*65
1483664799.67,42816,5.0,72078.8,-29.61,-54.45,-56.13,0,*64
1483664800.95,42817,5.0,72070.5,-29.63,-54.45,-56.21,0,*66
1483664802.21,42818,5.0,72064.5,-29.63,-54.51,-56.37,0,*6B
1483664803.49,42819,5.0,72072.8,-29.63,-54.89,-56.43,0,*6C
1483664804.75,42820,5.0,72068.5,-29.61,-54.89,-56.43,0,*64
1483664805.98,42821,5.0,72082.0,-29.61,-54.89,-56.59,0,*6E
1483664807.21,42822,5.0,72074.5,-29.61,-54.89,-56.37,0,*65
1483664808.44,42823,5.0,72074.0,-29.61,-54.89,-56.37,0,*64
1483664809.68,42824,5.0,72060.5,-29.61,-54.89,-56.37,0,*63
1483664810.94,42825,5.0,72074.8,-29.61,-54.75,-56.21,0,*66
1483664812.22,42826,5.0,72086.0,-29.61,-54.21,-55.89,0,*65
1483664813.5,42827,5.0,72086.0,-29.61,-54.13,-55.89,0,*65
1483664814.76,42828,5.0,72074.5,-29.61,-54.29,-56.21,0,*62
1483664816.02,42829,5.0,72078.5,-29.61,-54.45,-56.21,0,*69
1483664817.26,42830,5.0,72080.0,-29.61,-54.51,-56.37,0,*63
1483664818.52,42831,5.0,72076.0,-29.61,-54.67,-56.37,0,*67
1483664819.76,42832,5.0,72082.0,-29.61,-54.89,-56.37,0,*64
1483664820.99,42833,5.0,72074.3,-29.61,-54.51,-56.21,0,*67
1483664822.27,42834,5.0,72076.0,-29.61,-54.45,-56.13,0,*64
1483664823.57,42835,5.0,72070.0,-29.63,-54.67,-56.13,0,*67
1483664824.87,42836,5.0,72068.3,-29.63,-54.75,-56.13,0,*67
1483664826.1,42837,5.0,72070.5,-29.61,-54.89,-56.21,0,*66
1483664827.38,42838,5.0,72070.5,-29.63,-55.21,-56.37,0,*6F
1483664828.69,42839,5.0,72072.0,-29.63,-55.21,-56.43,0,*6D
1483664829.97,42840,5.0,72076.3,-29.63,-55.13,-56.59,0,*69
1483664831.25,42841,5.0,72080.0,-29.63,-55.21,-56.59,0,*69
1483664832.53,42842,5.0,72076.5,-29.63,-55.59,-56.83,0,*62
1483664833.83,42843,5.0,72068.3,-29.63,-55.35,-56.43,0,*65
1483664835.14,42844,5.0,72062.3,-29.65,-55.05,-56.51,0,*64
1483664836.42,42845,5.0,72056.5,-29.63,-54.75,-56.21,0,*62
1483664837.68,42846,5.0,72070.3,-29.63,-54.89,-56.37,0,*65
1483664838.96,42847,5.0,72066.3,-29.63,-54.89,-56.43,0,*67
1483664840.24,42848,5.0,72064.8,-29.63,-54.67,-56.37,0,*6B
1483664841.5,42849,5.0,72068.0,-29.63,-54.51,-56.21,0,*68
1483664842.8,42850,5.0,72062.5,-29.63,-54.45,-56.13,0,*64
1483664844.1,42851,5.0,72082.8,-29.63,-54.45,-55.97,0,*6A
1483664845.36,42852,5.0,72068.3,-29.61,-54.67,-56.21,0,*65
1483664846.67,42853,5.0,72070.0,-29.65,-55.05,-56.51,0,*62
1483664847.95,42854,5.0,72072.5,-29.65,-55.29,-56.51,0,*6B
1483664849.23,42855,5.0,72058.8,-29.63,-54.67,-56.21,0,*60
1483664850.52,42856,5.0,72062.8,-29.63,-54.97,-56.37,0,*6B
1483664851.83,42857,5.0,72060.8,-29.63,-54.97,-56.51,0,*6A
1483664853.11,42858,5.0,72064.8,-29.63,-54.97,-56.37,0,*65
1483664854.42,42859,5.0,72056.8,-29.63,-54.97,-55.97,0,*6D
1483664855.67,42860,5.0,72054.3,-29.63,-54.89,-56.21,0,*66
1483664856.97,42861,5.06,72060.5,-29.65,-54.75,-56.05,0,*64
1483664858.25,42862,5.0,72070.0,-29.63,-54.51,-55.75,0,*63
1483664859.54,42863,5.0,72066.5,-29.63,-54.51,-55.75,0,*62
1483664860.83,42864,5.0,72074.5,-29.63,-54.45,-55.59,0,*6E
1483664862.13,42865,5.0,72066.8,-29.63,-54.67,-55.89,0,*62
1483664863.38,42866,5.0,72044.3,-29.65,-54.59,-55.81,0,*62
1483664864.69,42867,5.0,72078.8,-29.63,-54.21,-55.13,0,*61
1483664865.95,42868,5.0,72064.0,-29.65,-54.51,-55.81,0,*64
1483664867.25,42869,5.0,72082.8,-29.63,-54.67,-56.13,0,*6E
1483664868.55,42870,5.0,72074.8,-29.63,-54.67,-56.13,0,*66
1483664869.83,42871,5.06,72056.3,-29.65,-54.97,-56.21,0,*6F
1483664871.13,42872,5.0,72076.0,-29.65,-54.75,-55.67,0,*61
1483664872.4,42873,5.0,72064.8,-29.63,-54.13,-54.89,0,*67
1483664873.69,42874,5.06,72052.3,-29.63,-53.91,-54.75,0,*6E
1483664874.96,42875,5.0,72082.0,-29.63,-53.77,-54.67,0,*64
1483664876.2,42876,5.0,72064.8,-29.63,-53.99,-54.89,0,*67
1483664877.51,42877,5.0,72066.3,-29.63,-54.45,-55.43,0,*67
1483664878.81,42878,5.0,72054.3,-29.65,-54.75,-56.05,0,*6C
1483664880.09,42879,5.0,72050.0,-29.63,-54.51,-55.89,0,*6A
1483664881.37,42880,5.0,72064.3,-29.63,-54.51,-55.97,0,*63
1483664882.64,42881,5.0,72070.8,-29.63,-54.51,-55.59,0,*60
1483664883.93,42882,5.0,72044.0,-29.63,-54.67,-55.59,0,*66
1483664885.21,42883,5.0,72054.8,-29.63,-54.51,-55.21,0,*6D
1483664886.51,42884,5.0,72062.8,-29.63,-54.21,-55.35,0,*68
1483664887.81,42885,5.0,72058.5,-29.65,-54.29,-55.67,0,*60
1483664889.12,42886,5.0,72074.8,-29.63,-54.13,-54.97,0,*62
1483664890.4,42887,5.0,72066.5,-29.63,-53.91,-54.75,0,*62
1483664891.71,42888,5.0,72064.0,-29.65,-53.83,-54.97,0,*64
1483664892.98,42889,5.0,72070.5,-29.63,-53.77,-54.97,0,*68
1483664894.28,42890,5.0,72066.0,-29.63,-54.13,-55.59,0,*66
1483664895.56,42891,5.0,72062.0,-29.63,-53.99,-55.43,0,*69
1483664896.83,42892,5.0,72054.3,-29.63,-53.99,-55.43,0,*6A
1483664898.08,42893,5.0,72060.5,-29.61,-53.99,-55.59,0,*62
1483664899.33,42894,5.0,72066.3,-29.61,-53.99,-55.21,0,*6A
1483664900.61,42895,5.0,72060.5,-29.63,-53.99,-55.43,0,*6D
1483664901.91,42896,5.0,72052.0,-29.63,-54.21,-55.59,0,*61
1483664903.19,42897,5.06,72058.5,-29.61,-54.29,-55.43,0,*61
1483664904.47,42898,5.0,72076.0,-29.61,-54.29,-55.43,0,*6E
1483664905.74,42899,5.0,72062.0,-29.61,-54.45,-55.89,0,*63
1483664907.0,42900,5.0,72062.0,-29.61,-53.69,-54.97,0,*65
1483664908.27,42901,5.0,72048.3,-29.61,-54.21,-55.35,0,*66
1483664909.56,42902,5.0,72056.8,-29.61,-54.21,-55.43,0,*64
1483664910.84,42903,5.0,72058.5,-29.61,-54.13,-55.43,0,*64